Location: Ottawa
(45.4170°N, 75.7000°W)
Time: 10:05:24
(UTC-04:00)

Daily predictions for brighter satellites

Satellite Brightness Start Highest point End
(mag) Time Altitude Azimuth Time Altitude Azimuth Time Altitude Azimuth
COSMO-SKYMED 1 4.2 19:50:03 10° N 19:54:08 40° WNW 19:58:11 10° SW
Lacrosse 5 2.1 19:49:21 10° SW 19:54:26 77° NW 19:59:32 10° NE
Cosmos 1674 3.7 19:52:40 10° NNE 19:55:55 27° ENE 19:59:10 10° SE
Cosmos 1953 2.9 19:53:53 10° SSE 19:57:38 36° E 20:01:22 10° NNE
Cosmos 1408 Rocket 4.3 19:54:36 10° N 19:58:41 33° ENE 20:02:44 10° SE
Cosmos 1766 3.4 19:56:08 10° SSW 20:00:01 80° W 20:03:55 10° N
Resurs 1-3 3.8 19:57:08 10° SE 20:01:22 49° ENE 20:05:37 10° N
Helios 1B rocket 3.6 20:03:44 10° NE 20:07:00 22° E 20:10:15 10° SSE
In-Cosmos 22 4.2 20:04:15 10° NNW 20:09:34 81° W 20:14:51 10° S
Meteor 1-4 Rocket 2.6 20:06:17 10° S 20:09:39 50° E 20:13:02 10° NNE
Cosmos 1939 Rocket 4.4 20:07:05 10° ESE 20:10:05 20° ENE 20:13:06 10° NNE
Timation 2 Rocket 4.0 20:07:50 10° NNW 20:14:10 66° ENE 20:20:12 10° SE
Spot 2 Rocket 3.5 20:09:54 10° SSE 20:14:59 76° ENE 20:20:08 10° NNW
Lacrosse 5 rocket 1.3 20:11:13 10° NW 20:15:12 61° NE 20:18:25 13° ESE
Cosmos 2098 Rocket 4.5 20:08:13 10° S 20:15:30 64° E 20:22:55 10° NNE
Lacrosse 4 Rocket 4.0 20:12:47 10° W 20:15:54 21° NW 20:19:02 10° N
Cosmos 1447 Rocket 4.4 20:10:25 10° N 20:16:34 69° E 20:22:41 10° SSE
Cosmos 1076 Rocket 3.4 20:14:45 10° N 20:19:02 75° E 20:23:15 10° SSE
Cosmos 1544 3.1 20:18:46 10° S 20:22:25 85° W 20:26:07 10° N
Cosmos 2344 4.0 20:15:01 10° SW 20:22:41 74° NW 20:31:41 10° NE
Okean 3 Rocket 4.1 20:18:52 10° NNW 20:23:14 64° W 20:27:36 10° S
Cosmos 1867 3.5 20:18:44 10° SSW 20:24:08 69° ESE 20:29:36 10° NE
CZ-2D R/B 3.2 20:21:20 10° SSE 20:25:11 76° ENE 20:29:07 10° N
Cosmos 2173 Rocket 4.4 20:19:32 10° SSE 20:25:15 41° E 20:31:04 10° NNE
FENGYUN 3A 4.2 20:20:00 10° S 20:25:19 61° W 20:30:41 10° NNW
USA 267 4.4 20:19:47 10° ENE 20:25:30 34° N 20:31:14 10° NW
Cosmos 1833 Rocket 2.7 20:22:21 10° NNW 20:28:02 87° ENE 20:33:39 10° SSE
Cosmos 1805 3.5 20:24:58 10° SSW 20:28:51 72° W 20:32:46 10° N
Cosmos 482 Debris 2.4 20:28:57 10° NW 20:30:47 63° NNE 20:31:14 40° E
Meteor 1-21 Rocket 4.3 20:24:57 10° N 20:30:50 87° E 20:36:45 10° S
Helios 1A 3.1 20:27:01 10° SSE 20:31:06 57° ENE 20:35:14 10° N
ALOS 3.4 20:26:50 10° S 20:31:19 46° W 20:35:51 10° NNW
Envisat 3.4 20:28:31 10° SE 20:33:13 44° ENE 20:38:03 10° N
Cosmos 1184 Rocket 3.9 20:31:02 10° NNE 20:33:59 27° ENE 20:35:05 22° ESE
Cosmos 2278 Rocket 3.4 20:34:43 10° SW 20:40:09 46° WNW 20:45:38 10° NNE
ATLAS 5 CENTAUR R/B 1.8 20:37:49 10° SSW 20:42:27 62° ESE 20:47:32 10° NE
SeaSat 1 3.5 20:38:46 10° S 20:43:28 45° WSW 20:48:13 10° NW
Geosat 4.1 20:38:58 10° NE 20:43:55 54° ESE 20:48:49 10° S
Cosmos 1125 Rocket 3.7 20:38:52 10° SSW 20:44:04 75° WNW 20:49:20 10° NNE
Cosmos 1048 Rocket 4.5 20:39:36 10° NNW 20:44:39 61° WSW 20:49:41 10° S
Cosmos 1733 3.2 20:41:28 10° S 20:45:17 61° E 20:49:09 10° NNE
Spot 1 4.3 20:40:56 10° SSE 20:45:40 84° ENE 20:50:42 10° NNW
Cosmos 1766 Rocket 3.7 20:41:13 10° N 20:45:43 80° W 20:50:11 10° S
ERS-1 Rocket 3.8 20:43:16 21° ESE 20:45:44 32° ENE 20:50:12 10° N
Cosmos 1470 2.7 20:42:57 10° S 20:46:54 67° E 20:50:51 10° NNE
Cosmos-2242 2.8 20:45:22 10° S 20:49:35 77° E 20:53:52 10° NNE
H-2A R/B 4.0 20:50:23 13° ENE 20:51:20 13° NE 20:53:47 10° NNE
Cosmos 1356 Rocket 3.8 20:49:00 10° N 20:52:54 40° ENE 20:54:14 30° ESE
GP-B 3.1 20:48:29 10° S 20:52:55 87° W 20:57:24 10° N
Cosmos 2016 Rocket 4.1 20:51:22 10° SSE 20:57:20 52° E 21:03:16 10° NNE
Cosmos 2297 4.1 20:52:37 10° SW 20:58:19 68° WNW 21:04:04 10° NNE
USA 186 2.5 20:58:05 20° SSW 20:59:12 34° W 21:01:17 10° NNW
Cosmos 1340 Rocket 2.8 20:55:15 10° NNW 20:59:17 83° W 21:02:28 16° S
BREEZE-M DEB (TANK) 3.6 20:56:23 10° WSW 20:59:39 89° SSE 21:10:15 10° ENE
Resurs 01 Rocket 3.3 20:58:17 10° SSW 21:02:17 33° W 21:06:20 10° NNW
CZ-4B DEB 2.7 21:01:12 30° S 21:02:36 80° W 21:05:43 10° NNW
Cosmos 1725 Rocket 4.3 21:02:51 18° SSE 21:07:02 43° E 21:12:50 10° NNE
Cosmos 2221 4.3 21:09:06 17° NE 21:09:06 17° NE 21:10:45 10° NE
Cosmos 2082 Rocket 3.3 21:02:46 10° NW 21:08:06 42° WSW 21:13:22 10° S
OE (NEXTSAT) 4.4 21:04:32 10° W 21:08:08 79° N 21:09:02 48° ENE
ISS -4.0 21:09:18 10° SW 21:12:33 81° SSE 21:12:44 75° E
Meteor 1-29 3.0 21:09:09 10° N 21:12:39 81° WNW 21:16:08 10° SSW
ARGOS 4.0 21:13:46 29° E 21:14:41 31° ENE 21:19:20 10° N
Cosmos 2100 Rocket 4.2 21:09:53 10° SSW 21:16:14 78° W 21:22:38 10° N
Cosmos 1743 Rocket 3.6 21:12:25 10° NNW 21:16:53 78° W 21:19:40 23° S
Cosmos 1500 Rocket 3.4 21:13:32 10° N 21:17:53 79° E 21:19:25 39° SSE
H-2A R/B 4.3 21:20:00 12° NE 21:20:00 12° NE 21:20:45 10° NNE
Meteor 1-11 4.1 21:13:42 10° N 21:19:17 68° ENE 21:21:49 33° SSE
SL-08 R/B 4.5 21:13:35 10° S 21:19:52 66° E 21:26:15 10° NNE
SL-14 R/B 3.1 21:18:11 10° N 21:22:04 84° E 21:22:48 57° SSE
Meteor 1-16 Rocket 4.2 21:16:31 10° S 21:22:21 72° E 21:28:17 10° NNE
YAOGAN 6 2.6 21:24:20 65° ENE 21:24:20 65° ENE 21:28:02 10° N
CZ-3B DEB 3.5 21:17:02 10° W 21:24:54 38° NNW 21:28:24 13° NE
Cosmos 2058 3.0 21:21:18 10° N 21:25:21 54° ENE 21:25:21 54° ENE
Cosmos 2251 Rocket 3.5 21:20:58 10° NNW 21:26:19 85° WSW 21:28:42 34° SSE
Cosmos 1271 Rocket 4.1 21:22:30 10° SSW 21:26:20 42° WNW 21:30:12 10° N
Tsikada Rocket 4.0 21:20:20 10° N 21:26:31 64° E 21:29:09 35° SSE
Cosmos 1328 4.0 21:25:17 10° NNW 21:29:15 70° W 21:30:24 43° SSW
USA 215 3.3 21:27:38 10° ENE 21:33:58 51° SE 21:40:18 10° SSW
SPOT 1/Viking Rocket 4.3 21:34:49 35° ENE 21:34:52 35° ENE 21:39:34 10° N
Lacrosse 5 3.7 21:33:45 10° WNW 21:38:05 27° NNW 21:42:26 10° NE
Cosmos 1802 Rocket 4.3 21:33:58 10° SSW 21:40:02 65° W 21:46:13 10° N
Cosmos 2151 2.9 21:37:18 10° N 21:41:35 80° W 21:42:00 69° SSW
Helios 1B rocket 4.1 21:38:38 10° N 21:42:23 34° WNW 21:46:07 10° SW
SPOT 5 3.1 21:42:54 55° E 21:43:26 58° ENE 21:48:38 10° N
Cosmos 1939 Rocket 4.0 21:42:57 26° SSW 21:44:44 41° W 21:48:42 10° NNW
Meteor 2-1 Rocket 4.1 21:43:32 51° SSE 21:44:46 65° E 21:50:22 10° NNE
Terra 3.6 21:52:12 20° NE 21:52:12 20° NE 21:54:33 10° NNE
SL-08 RB Rocket 4.4 21:52:46 43° NE 21:52:46 43° NE 21:56:28 10° N
Cosmos 1703 4.1 21:48:52 10° N 21:51:38 43° N 21:51:38 43° N
Cosmos 1842 Rocket 4.4 21:50:28 18° SSW 21:53:31 50° WNW 21:57:48 10° N
Cosmos 389 Rocket 3.9 21:55:11 35° NNW 21:55:11 35° NNW 21:57:28 10° N
Lacrosse 5 rocket 3.3 21:51:17 10° W 21:54:00 18° SW 21:54:09 18° SW
Cosmos 1816 Rocket 4.4 21:49:26 10° N 21:55:40 87° E 21:57:23 51° S
Cosmos 1626 3.6 21:52:43 10° N 21:54:52 32° N 21:54:52 32° N
Cosmos 2369 Rocket 2.5 22:01:47 52° NE 22:01:47 52° NE 22:06:08 10° NNE
MetOp-B 4.0 22:02:47 70° S 22:03:24 83° WSW 22:08:47 10° NNW
USA 267 3.5 22:06:11 46° ENE 22:07:48 58° NNE 22:14:11 10° NW
USA 245 4.2 22:09:51 74° SSE 22:10:27 89° ENE 22:16:50 10° NNW
Cosmos 2233 Rocket 3.8 22:10:13 71° SSE 22:10:54 82° E 22:17:05 10° N
Cosmos 2227 Rocket 4.5 22:11:46 10° NNE 22:13:42 12° NE 22:14:29 11° NE
NOAA 11 4.4 22:19:29 60° SW 22:20:01 63° W 22:25:30 10° NNW
ERS-1 Rocket 4.3 22:23:15 30° SW 22:24:28 34° W 22:29:03 10° NNW
Cosmos 1943 Rocket 4.1 22:28:51 18° NE 22:28:51 18° NE 22:30:18 10° NE
Sich 1 4.4 22:22:42 10° N 22:25:16 34° N 22:25:16 34° N
ATLAS 5 CENTAUR R/B 3.9 22:23:26 10° W 22:27:35 27° NW 22:32:06 10° NNE
H-2A R/B 2.5 22:31:00 58° N 22:31:00 58° N 22:35:15 10° NNW
CZ-3 Stage 3 4.5 22:23:35 10° W 22:36:37 24° SW 22:37:49 23° SSW
Cosmos 2221 4.3 22:45:55 30° NW 22:45:55 30° NW 22:48:48 10° N
CZ-4C R/B 3.7 22:48:37 28° NNE 22:48:37 28° NNE 22:51:29 10° NE
H-2A R/B 4.3 22:57:07 21° NNW 22:57:07 21° NNW 22:58:32 10° NNW
ARGOS 4.2 22:55:16 39° W 22:55:16 39° W 22:59:50 10° NNW
Cosmos 2219 4.3 22:50:29 10° NNW 22:54:14 36° NNE 22:54:14 36° NNE
USA 215 3.6 23:10:40 10° NE 23:17:04 59° NNW 23:23:26 10° WSW
Lacrosse 5 4.0 23:18:29 10° NW 23:22:01 22° N 23:22:01 22° N
Terra 4.0 23:31:05 23° NW 23:31:05 23° NW 23:32:59 10° NNW
Cosmos 2297 Rocket 4.1 23:27:52 10° N 23:30:44 23° NNE 23:30:44 23° NNE
CZ-3B DEB 4.5 23:34:09 10° NW 23:35:01 13° NW 23:35:01 13° NW
Cosmos 2369 Rocket 4.2 23:43:23 20° WNW 23:45:05 23° NW 23:49:32 10° N
USA 267 4.4 23:53:31 34° WNW 23:53:31 34° WNW 23:57:14 10° WNW
